Seward, AK

3:41 AM AKDT on April 29, 2017 (GMT -0800)
Seward

Weather History for PAWD - October, 2012

Change the Weather History Date:

Tuesday, October 9, 2012

  Actual Average Record
Temperature  
Mean Temperature 50 °F -  
Max Temperature 54 °F 46 °F 55 °F (1997)
Min Temperature 45 °F 37 °F 24 °F (1951)
Degree Days  
Heating Degree Days 16    
Moisture  
Dew Point 43 °F    
Average Humidity 80    
Maximum Humidity 87    
Minimum Humidity 71    
Precipitation  
Precipitation 0.00 in - - ()
Sea Level Pressure  
Sea Level Pressure 30.07 in    
Wind  
Wind Speed 16 mph (North)    
Max Wind Speed 24 mph    
Max Gust Speed 36 mph    
Visibility 10 miles    
Events      
Averages and records for this station are not official NWS values.
T = Trace of Precipitation, MM = Missing Value Source: NWS Daily Summary

Daily Weather History Graph

Daily Weather History Graph

Search for Another Location

Airport or City:

Trip Planner

Search our weather history database for the weather conditions in past years. The results will help you decide how hot, cold, wet, or windy it might be!

Date:

Astronomy

Oct. 09, 2012 Rise Set
Actual Time 8:24 AM AKDT 7:03 PM AKDT
Civil Twilight 7:42 AM AKDT 7:45 PM AKDT
Nautical Twilight 6:54 AM AKDT 8:33 PM AKDT
Astronomical Twilight 6:04 AM AKDT 9:23 PM AKDT
Moon 12:42 AM AKDT (10/9) 4:54 PM AKDT (10/9)
Length of Visible Light 12h 03m
Length of Day
10h 39m
Waning Crescent, 35% of the Moon is Illuminated
Oct 9
Waning Crescent
Oct 15
New
Oct 21
First Quarter
Oct 29
Full
Nov 6
Last Quarter

Hourly Weather History & Observations

Time (AKDT) Temp. Windchill Dew Point Humidity Pressure Visibility Wind Dir Wind Speed Gust Speed Precip Events Conditions
12:53 AM 48.9 °F - 45.0 °F 86% 30.12 in 10.0 mi North 11.5 mph 23.0 mph N/A   Scattered Clouds
1:04 AM 48.2 °F - 44.6 °F 87% 30.12 in 10.0 mi NNE 10.4 mph 19.6 mph N/A   Mostly Cloudy
1:12 AM 48.2 °F - 44.6 °F 87% 30.11 in 10.0 mi North 15.0 mph 23.0 mph N/A   Scattered Clouds
1:53 AM 48.9 °F - 44.1 °F 83% 30.12 in 10.0 mi North 13.8 mph 23.0 mph N/A   Partly Cloudy
2:53 AM 48.9 °F - 43.0 °F 80% 30.10 in 10.0 mi North 19.6 mph 26.5 mph N/A   Clear
3:53 AM 48.0 °F - 43.0 °F 83% 30.11 in 10.0 mi North 16.1 mph 29.9 mph N/A   Clear
4:53 AM 46.9 °F - 42.1 °F 83% 30.10 in 10.0 mi North 16.1 mph 21.9 mph N/A   Clear
5:53 AM 46.9 °F - 42.1 °F 83% 30.09 in 10.0 mi North 17.3 mph 26.5 mph N/A   Clear
6:53 AM 46.0 °F 38.5 °F 41.0 °F 83% 30.08 in 10.0 mi North 19.6 mph 29.9 mph N/A   Clear
7:53 AM 46.0 °F 38.5 °F 41.0 °F 83% 30.08 in 10.0 mi NNE 19.6 mph 27.6 mph N/A   Clear
8:53 AM 46.0 °F 38.5 °F 41.0 °F 83% 30.08 in 10.0 mi North 19.6 mph 31.1 mph N/A   Clear
9:53 AM 46.9 °F - 41.0 °F 80% 30.07 in 10.0 mi North 24.2 mph 28.8 mph N/A   Clear
10:53 AM 48.0 °F - 42.1 °F 80% 30.07 in 9.0 mi North 16.1 mph 26.5 mph N/A   Clear
11:53 AM 48.9 °F - 42.1 °F 77% 30.07 in 10.0 mi North 16.1 mph 27.6 mph N/A   Clear
12:53 PM 51.1 °F - 43.0 °F 74% 30.06 in 10.0 mi North 15.0 mph 26.5 mph N/A   Clear
1:53 PM 52.0 °F - 43.0 °F 71% 30.05 in 10.0 mi North 20.7 mph 33.4 mph N/A   Clear
2:53 PM 52.0 °F - 43.0 °F 71% 30.04 in 10.0 mi NNE 21.9 mph 31.1 mph N/A   Clear
3:53 PM 53.1 °F - 44.1 °F 71% 30.03 in 10.0 mi North 23.0 mph 31.1 mph N/A   Clear
4:53 PM 52.0 °F - 43.0 °F 71% 30.04 in 10.0 mi NNE 18.4 mph 31.1 mph N/A   Clear
5:53 PM 50.0 °F - 43.0 °F 77% 30.03 in 10.0 mi North 19.6 mph 29.9 mph N/A   Clear
6:53 PM 48.9 °F - 43.0 °F 80% 30.03 in 10.0 mi NNE 20.7 mph 29.9 mph N/A   Clear
7:53 PM 48.0 °F - 42.1 °F 80% 30.03 in 10.0 mi North 17.3 mph 33.4 mph N/A   Clear
8:53 PM 48.0 °F - 42.1 °F 80% 30.04 in 10.0 mi North 20.7 mph 33.4 mph N/A   Clear
9:53 PM 46.9 °F - 42.1 °F 83% 30.04 in 10.0 mi North 19.6 mph 29.9 mph N/A   Clear
10:53 PM 46.0 °F 37.6 °F 41.0 °F 83% 30.04 in 10.0 mi NNE 24.2 mph 35.7 mph N/A   Clear
11:53 PM 45.0 °F 37.4 °F 41.0 °F 86% 30.04 in 10.0 mi North 18.4 mph 29.9 mph N/A   Clear